Погода в Иске

Россия / Тюменская область     57°34′21″N   65°47′26″E
темп.,
°C
ветер,
м/с
пор.,
м/с
влажн.,
%
обл.,
%
осадки,
мм/ч
давл.,
гПа
погр.,
м
23 апреля, пт
пт2323:00+9ю51361100 0.0 1034498
02:00+7ююв51165100 0.0 1034369
05:00+5ююв41167100 0.0 1034298
08:00+9ю41062100 0.0 1033340
11:00+11ююз4852100 0.0 1033798
14:00+14ю61040100 0.0 10322054
17:00+14ююз5946100 0.0 10311902
20:00+11ююз51161100 0.2 10321204
24 апреля, сб
сб2423:00+10ю4955100 0.4 1031818
02:00+8ююв4952100 0.0 1030389
05:00+7ююв3756100 0.0 1029227
08:00+7ююв4749100 0.0 1029372
11:00+10ююв4638100 0.0 1027853
14:00+11ююв5636100 0.0 10261216
17:00+11ююв4644100 0.0 10251578
20:00+8ююв4949100 0.0 1025594
25 апреля, вс
вс2523:00+7вюв4956100 0.0 1023396
02:00+6вюв41060100 0.0 1021410
05:00+5вюв3864100 0.0 1020274
08:00+6юв4859100 0.0 1019622
11:00+8вюв5757100 0.0 1017888
14:00+13вюв573796 0.0 10151842
17:00+14юв473883 0.0 10132103
20:00+10ююв375258 0.0 1012190
26 апреля, пн
пн2623:00+9ю377392 0.0 1011433
02:00+7ю3990100 1.2 1009619
05:00+6зюз5118387 1.7 1009667
08:00+5зюз4989100 0.4 10101124
11:00+7з6106879 0.8 10131253
14:00+12з71132100 0.0 10133433
17:00+11з61138100 0.1 10142667
20:00+8юз510536 0.1 1015442
27 апреля, вт
вт2723:00+6зюз412560 0.1 1016359
02:00+5юз3116586 0.0 1016270
05:00+4юз31068100 0.0 1016238
08:00+7юз3658100 0.0 1015272
11:00+9ююз5650100 0.0 1014904
14:00+9ю3457100 0.0 10121015
17:00+8вюв3576100 0.2 1010873
20:00+6всв2587100 0.4 10081020